Waarnemingen

Advertentie
Mijn weer
Barranda, Spanje (8365): temperatuur & dauwpunt: 16.07.2019 18:00:00 - 22.07.2019 18:00:00 (CEST)Barranda, Spanje (8365): windsnelheid & windstoten: 16.07.2019 18:00:00 - 22.07.2019 18:00:00 (CEST)Barranda, Spanje (8365): windrichting: 16.07.2019 18:00:00 - 22.07.2019 18:00:00 (CEST)Barranda, Spanje (8365): luchtdruk: 16.07.2019 18:00:00 - 22.07.2019 18:00:00 (CEST)Barranda, Spanje (8365): zicht: 16.07.2019 18:00:00 - 22.07.2019 18:00:00 (CEST)Barranda, Spanje (8365): Zonneschijnduur: 16.07.2019 18:00:00 - 22.07.2019 18:00:00 (CEST)Barranda, Spanje (8365): neerslag: 16.07.2019 18:00:00 - 22.07.2019 18:00:00 (CEST)
Datum & Tijd tt [°C] td [°C] ff [km/u] ff [kn] fx [km/u] fx [kn] dd ppp [hPa] vv [km] sd [min] rr [mm]
22.07.2019 18:00:00 - - - - - - - - - - -
22.07.2019 17:00:00 33,4 2,3 14 8 32 18 O 1016,9 20 60 0,0
22.07.2019 16:00:00 34,1 3,8 17 9 32 17 O 1017,0 20 60 0,0
22.07.2019 15:00:00 33,0 8,4 15 8 27 15 O 1017,6 20 60 0,0
22.07.2019 14:00:00 32,6 8,1 14 8 29 15 ONO 1018,1 20 60 -
22.07.2019 13:00:00 31,4 9,6 13 7 28 15 O 1018,9 20 60 0,0
22.07.2019 12:00:00 29,5 10,6 6 4 16 9 ONO 1019,6 20 60 0,0
22.07.2019 11:00:00 28,6 10,3 6 4 14 8 ONO 1019,8 20 60 0,0
22.07.2019 10:00:00 27,5 9,8 4 2 8 5 O 1019,9 20 60 0,0
22.07.2019 09:00:00 23,2 10,9 3 2 8 5 ZO 1020,8 7 60 0,0
22.07.2019 08:00:00 17,1 10,0 3 2 8 5 W 1021,9 20 7 -
22.07.2019 07:00:00 16,4 9,0 3 1 10 5 W 1021,8 20 0 0,0
22.07.2019 06:00:00 17,1 9,8 5 3 10 6 WZW 1021,4 20 0 0,0
22.07.2019 05:00:00 17,6 11,0 3 2 7 4 W 1021,5 20 0 0,0
22.07.2019 04:00:00 18,4 11,0 3 2 6 3 WZW 1021,5 20 0 0,0
22.07.2019 03:00:00 19,3 12,1 3 1 6 3 W 1021,5 20 0 0,0
22.07.2019 02:00:00 20,7 12,1 4 2 9 5 NNW 1021,6 19 0 -
22.07.2019 01:00:00 20,6 11,8 4 2 7 4 NW 1022,2 20 0 0,0
22.07.2019 00:00:00 22,4 11,8 1 1 12 7 W 1021,7 20 0 0,0
21.07.2019 23:00:00 23,0 11,7 3 2 8 5 NNO 1021,5 20 0 0,0
21.07.2019 22:00:00 24,9 11,1 3 2 15 8 ONO 1019,6 20 0 0,0
21.07.2019 21:00:00 27,5 9,8 9 5 21 11 O 1017,9 20 0 0,0
21.07.2019 20:00:00 29,5 9,0 10 5 27 14 O 1016,6 20 46 -
21.07.2019 19:00:00 30,5 9,4 16 9 29 16 O 1015,6 20 60 0,0
21.07.2019 18:00:00 32,5 7,4 13 7 29 16 O 1015,7 20 59 0,0
21.07.2019 17:00:00 33,1 7,1 15 8 32 17 O 1015,8 20 60 0,0
21.07.2019 16:00:00 33,9 6,2 14 8 29 15 O 1015,7 20 60 0,0
21.07.2019 15:00:00 33,8 9,8 11 6 27 14 O 1016,1 20 60 0,0
21.07.2019 14:00:00 33,1 7,8 14 7 31 17 O 1016,6 18 60 -
21.07.2019 13:00:00 31,6 8,5 13 7 26 14 ONO 1017,1 20 60 0,0
21.07.2019 12:00:00 30,9 8,5 12 6 22 12 O 1016,9 20 60 0,0
21.07.2019 11:00:00 29,5 8,5 7 4 16 9 NO 1016,9 20 60 0,0
21.07.2019 10:00:00 26,9 9,3 5 3 9 5 OZO 1017,8 20 60 0,0
21.07.2019 09:00:00 22,6 10,4 2 1 6 3 ZO 1018,4 20 55 0,0
21.07.2019 08:00:00 17,2 8,7 3 2 9 5 ZW 1019,1 20 0 -
21.07.2019 07:00:00 16,2 7,1 3 1 12 6 WNW 1019,1 20 0 0,0
21.07.2019 06:00:00 16,5 7,4 4 2 11 6 WNW 1018,9 20 0 0,0
21.07.2019 05:00:00 17,2 8,9 3 2 14 8 WNW 1018,7 20 0 0,0
21.07.2019 04:00:00 19,2 8,8 6 3 14 7 WZW 1018,4 20 0 0,0
21.07.2019 03:00:00 20,0 12,5 8 4 11 6 WZW 1018,2 20 0 0,0
21.07.2019 02:00:00 19,4 11,9 5 3 9 5 WNW 1018,9 20 0 -
21.07.2019 01:00:00 20,3 12,5 3 2 7 4 NW 1018,9 20 0 0,0
21.07.2019 00:00:00 22,1 12,3 4 2 10 6 N 1018,2 20 0 0,0
20.07.2019 23:00:00 23,8 11,4 6 3 11 6 N 1017,5 20 0 0,0
20.07.2019 22:00:00 25,7 10,3 7 4 19 11 NO 1016,1 20 0 0,0
20.07.2019 21:00:00 27,2 13,9 9 5 23 12 O 1014,5 20 0 0,0
20.07.2019 20:00:00 28,6 15,2 11 6 26 14 ONO 1013,3 20 40 -
20.07.2019 19:00:00 30,1 14,2 13 7 25 13 O 1012,6 20 60 0,0
20.07.2019 18:00:00 31,3 13,6 14 8 31 17 O 1012,3 20 60 0,0
20.07.2019 17:00:00 32,9 13,1 15 8 29 16 O 1011,4 20 60 0,0
20.07.2019 16:00:00 34,9 10,0 13 7 29 15 O 1011,0 20 60 0,0
20.07.2019 15:00:00 34,9 9,3 11 6 26 14 O 1011,2 20 60 0,0
20.07.2019 14:00:00 33,9 8,5 14 8 26 14 O 1011,7 20 60 -
20.07.2019 13:00:00 32,4 8,7 12 6 26 14 O 1012,2 20 60 0,0
20.07.2019 12:00:00 31,0 9,8 9 5 16 9 O 1012,5 20 60 0,0
20.07.2019 11:00:00 28,5 9,7 5 3 13 7 O 1013,3 20 60 0,0
20.07.2019 10:00:00 26,1 9,4 5 3 9 5 OZO 1014,1 20 60 0,0
20.07.2019 09:00:00 22,4 10,5 1 1 6 4 ONO 1014,6 20 48 0,0
20.07.2019 08:00:00 17,4 10,3 1 1 13 7 WNW 1015,6 20 0 -
20.07.2019 07:00:00 17,0 8,9 6 3 14 8 W 1015,3 20 0 0,0
20.07.2019 06:00:00 17,0 9,4 3 1 11 6 WNW 1015,5 20 0 0,0
20.07.2019 05:00:00 18,6 9,0 4 2 18 10 W 1015,0 20 0 0,0
20.07.2019 04:00:00 17,8 9,2 4 2 7 4 WZW 1015,2 20 0 0,0
20.07.2019 03:00:00 19,6 8,9 3 2 9 5 W 1015,3 20 0 0,0
20.07.2019 02:00:00 20,8 10,5 2 1 9 5 ZW 1015,6 20 0 -
20.07.2019 01:00:00 23,3 8,9 5 3 16 9 N 1015,0 20 0 0,0
20.07.2019 00:00:00 23,3 13,5 6 4 17 9 NNO 1014,5 20 0 0,0
19.07.2019 23:00:00 23,9 11,9 8 4 16 8 NNO 1013,8 20 0 0,0
19.07.2019 22:00:00 24,9 10,8 6 4 17 9 NNO 1012,9 20 0 0,0
19.07.2019 21:00:00 27,0 11,9 8 5 21 11 NNO 1012,0 20 0 0,0
19.07.2019 20:00:00 29,1 10,8 13 7 31 17 ONO 1011,2 20 53 -
19.07.2019 19:00:00 30,9 10,3 18 10 31 17 ONO 1010,8 20 60 0,0
19.07.2019 18:00:00 32,3 9,2 17 9 32 18 O 1010,8 20 60 0,0
19.07.2019 17:00:00 33,6 8,9 16 9 33 18 O 1010,6 20 60 0,0
19.07.2019 16:00:00 34,0 9,9 16 9 29 16 O 1010,8 18 60 0,0
19.07.2019 15:00:00 33,5 8,1 11 6 26 14 ONO 1011,7 20 60 0,0
19.07.2019 14:00:00 33,2 4,8 10 5 24 13 ONO 1012,4 20 60 -
19.07.2019 13:00:00 32,8 4,5 8 5 19 10 O 1013,0 20 60 0,0
19.07.2019 12:00:00 30,3 6,2 8 4 18 10 O 1014,0 20 60 0,0
19.07.2019 11:00:00 28,9 10,0 5 3 12 7 O 1014,5 20 60 0,0
19.07.2019 10:00:00 26,7 10,8 6 3 10 6 O 1015,2 20 60 0,0
19.07.2019 09:00:00 22,6 12,0 1 1 4 2 N 1015,7 20 60 0,0
19.07.2019 08:00:00 16,7 11,0 2 1 - - NO 1016,7 20 - -
19.07.2019 07:00:00 15,0 10,0 3 2 5 3 WNW 1016,8 20 0 0,0
19.07.2019 06:00:00 15,8 10,2 3 2 9 5 WNW 1016,2 20 0 0,0
19.07.2019 05:00:00 16,8 10,4 4 2 15 8 W 1016,0 20 0 0,0
19.07.2019 04:00:00 19,1 9,8 8 4 19 10 W 1015,5 20 0 0,0
19.07.2019 03:00:00 19,6 10,5 7 4 12 7 W 1015,9 20 0 0,0
19.07.2019 02:00:00 20,6 11,0 7 4 15 8 W 1015,7 20 0 -
19.07.2019 01:00:00 22,7 11,8 10 6 16 8 ZW 1015,0 20 0 0,0
19.07.2019 00:00:00 23,8 12,1 8 4 22 12 WZW 1014,5 20 0 0,0
18.07.2019 23:00:00 25,3 11,1 12 7 21 12 W 1013,9 20 0 0,0
18.07.2019 22:00:00 25,4 11,2 5 3 11 6 WNW 1013,2 20 0 0,0
18.07.2019 21:00:00 28,5 12,0 7 4 22 12 O 1011,8 20 1 0,0
18.07.2019 20:00:00 30,4 12,7 14 7 30 16 O 1010,5 20 55 -
18.07.2019 19:00:00 31,6 12,4 16 9 30 16 O 1009,9 20 52 0,0
18.07.2019 18:00:00 32,7 11,2 13 7 26 14 O 1009,9 20 56 0,0
18.07.2019 17:00:00 33,5 10,2 14 8 28 15 O 1010,0 20 60 0,0
18.07.2019 16:00:00 33,3 10,6 13 7 27 14 ONO 1010,5 20 60 0,0
18.07.2019 15:00:00 33,0 9,7 13 7 24 13 ONO 1011,2 20 60 0,0
18.07.2019 14:00:00 32,9 10,3 9 5 22 12 O 1011,8 20 60 -
18.07.2019 13:00:00 32,1 8,4 8 4 18 10 O 1012,3 20 60 0,0
18.07.2019 12:00:00 30,8 10,8 10 5 19 10 O 1012,7 20 60 0,0
18.07.2019 11:00:00 29,2 10,3 5 3 10 5 OZO 1013,0 20 60 0,0
18.07.2019 10:00:00 26,6 11,9 5 3 10 6 OZO 1013,7 20 60 0,0
18.07.2019 09:00:00 21,6 11,3 6 3 16 9 ZW 1014,6 20 60 0,0
18.07.2019 08:00:00 17,8 10,2 8 4 19 11 W 1015,2 20 34 -
18.07.2019 07:00:00 16,9 10,5 13 7 19 11 WZW 1015,2 20 0 0,0
18.07.2019 06:00:00 16,4 11,3 5 3 11 6 W 1015,3 20 0 0,0
18.07.2019 05:00:00 16,4 11,6 5 3 - - W 1015,2 20 - -
18.07.2019 04:00:00 17,7 11,4 5 3 9 5 W 1014,8 20 0 0,0
18.07.2019 03:00:00 19,8 11,0 5 3 16 9 W 1014,2 20 0 0,0
18.07.2019 02:00:00 20,8 13,5 9 5 16 9 W 1014,3 20 0 -
18.07.2019 01:00:00 20,3 13,8 11 6 17 9 W 1014,3 20 0 0,0
18.07.2019 00:00:00 21,1 13,1 4 2 9 5 W 1014,0 20 0 0,0
17.07.2019 23:00:00 23,4 13,6 5 3 13 7 O 1013,1 20 0 0,0
17.07.2019 22:00:00 24,5 14,6 9 5 28 15 W 1012,1 20 0 0,0
17.07.2019 21:00:00 26,6 13,4 12 7 21 12 WZW 1011,8 20 0 0,0
17.07.2019 20:00:00 27,6 10,8 10 5 24 13 ONO 1010,6 20 0 -
17.07.2019 19:00:00 28,6 11,2 13 7 34 19 O 1010,0 20 10 0,0
17.07.2019 18:00:00 30,6 10,5 19 10 39 21 ONO 1009,0 20 60 0,0
17.07.2019 17:00:00 32,9 9,7 20 11 39 21 O 1008,6 16 57 0,0
17.07.2019 16:00:00 34,6 7,6 9 5 29 15 ZO 1008,6 20 60 0,0
17.07.2019 15:00:00 33,0 9,0 16 9 30 16 O 1009,6 20 60 0,0
17.07.2019 14:00:00 32,1 9,6 12 7 23 13 ONO 1010,7 20 60 -
17.07.2019 13:00:00 31,4 10,6 8 5 19 10 ONO 1011,3 20 60 0,0
17.07.2019 12:00:00 29,4 11,9 8 4 16 9 O 1012,2 20 60 0,0
17.07.2019 11:00:00 27,4 14,4 6 3 13 7 O 1012,9 20 60 0,0
17.07.2019 10:00:00 24,3 15,5 3 2 - - O 1013,6 20 - -
17.07.2019 09:00:00 22,6 15,2 3 2 7 4 ZZO 1014,0 18 60 0,0
17.07.2019 08:00:00 17,0 13,2 2 1 5 3 NW 1015,3 20 34 -
17.07.2019 07:00:00 16,3 13,4 4 2 9 5 W 1015,1 16 0 0,0
17.07.2019 06:00:00 18,0 13,9 6 3 13 7 WZW 1014,5 20 0 0,0
17.07.2019 05:00:00 17,7 14,2 3 1 9 5 NW 1015,0 20 0 0,0
17.07.2019 04:00:00 19,4 14,4 5 3 14 8 W 1014,9 20 0 0,0
17.07.2019 03:00:00 20,0 14,6 5 3 10 5 WZW 1015,0 20 0 0,0
17.07.2019 02:00:00 20,6 14,9 5 3 11 6 WZW 1015,2 20 0 -
17.07.2019 01:00:00 20,6 15,2 3 2 10 5 N 1015,5 20 0 0,0
17.07.2019 00:00:00 21,8 15,2 4 2 18 10 N 1015,2 20 0 0,0
16.07.2019 23:00:00 22,9 15,3 5 3 13 7 NNO 1014,5 20 0 0,0
16.07.2019 22:00:00 24,1 15,3 4 2 14 8 NO 1013,3 20 0 0,0
16.07.2019 21:00:00 25,6 15,3 7 4 19 10 ONO 1012,7 20 0 0,0
16.07.2019 20:00:00 27,6 15,6 12 6 28 15 O 1011,8 20 52 -
16.07.2019 19:00:00 29,2 15,3 15 8 30 16 O 1011,1 20 60 0,0
16.07.2019 18:00:00 30,6 14,2 16 9 37 20 O 1010,9 20 60 0,0

tt = temperatuur
td = dauwpunt
ff = windsnelheid
fx = windstoten
dd = windrichting
ppp = luchtdruk
vv = zicht
sd = Zonneschijnduur
rr = neerslag

Weerstations in de omgeving